Regional Weather Roundup
Issued by NWS Kansas City/Pleasant Hill, MO

Home | Current Version | Previous Version | Text Only | Print | Product List | Glossary On
Versions: 1 2 3 4 5 6 7 8 9 10 11 12 13 14 15 16 17 18 19 20 21 22 23 24 25 26 27 28 29 30 31 32 33 34 35 36 37 38 39 40 41 42 43 44 45 46 47 48 49 50
853
ASUS43 KEAX 251710
RWREAX

WEATHER ROUNDUP FOR EASTERN KANSAS AND NORTHWEST MISSOURI
NATIONAL WEATHER SERVICE KANSAS CITY/PLEASANT HILL MO
1200 PM CDT MON JUL 25 2016

KSZ040-057-103>105-MOZ028-029-037-043-251800-
...KANSAS CITY METROPOLITAN AREA...

CITY           SKY/WX    TMP DP  RH WIND       PRES   REMARKS
K.C. INTL      CLOUDY    78  69  73 CALM      30.10F
K.C. DOWNTOWN  CLOUDY    80  69  69 NE5       30.08F
LEES SUMMIT    CLOUDY    75  70  84 NW3       30.11F
OLATHE - IXD     N/A     75  70  84 W5        30.10F
OLATHE - OJC   CLOUDY    74  69  85 NW6       30.10F
LAWRENCE       CLOUDY    76  69  79 E6        30.08F

$$

MOZ001>008-011>017-020>025-030>033-038>040-044>046-053-054-251800-
...NORTHERN AND CENTRAL MISSOURI...

CITY           SKY/WX    TMP DP  RH WIND       PRES   REMARKS
ST. JOSEPH     CLOUDY    80  66  62 VRB3      30.10F
MOSBY          CLOUDY    77  66  69 CALM      30.09F
WHITEMAN AFB   CLOUDY    77  77 100 SW6       30.08S
CLINTON        CLOUDY    77  73  88 W9        30.10S
SEDALIA        CLOUDY    79  73  82 W7        30.10S
WARSAW         NOT AVBL
CHILLICOTHE      N/A     84  69  60 VRB3      30.09F
KIRKSVILLE       N/A     82  66  58 N9        30.09R

$$

MOZ041-047>049-056>058-063>065-088>090-097-251800-
...EASTERN AND SOUTHERN MISSOURI...

CITY           SKY/WX    TMP DP  RH WIND       PRES   REMARKS
ST. LOUIS INTL NOT AVBL
SPIRIT OF STL  CLOUDY    81  74  79 CALM      30.04S
COLUMBIA       PTSUNNY   78  73  84 NW7       30.08S
JEFFERSON CITY PTSUNNY   78  72  81 VRB3      30.07R
ROLLA          CLOUDY    78  71  79 W7        30.07R
OSAGE BEACH    LGT RAIN  75  73  93 VRB5      30.09R
SPRINGFIELD    CLOUDY    74  70  87 SW7       30.10S
BRANSON        CLOUDY    75  72  88 W5        30.12R
JOPLIN         LGT RAIN  75  73  93 E10       30.09F
WEST PLAINS    PTSUNNY   80  71  74 CALM      30.09F

$$

IAZ060-094-KSZ022-034>040-054-083-096-NEZ052-066-093-251800-
...KANSAS...SOUTHEAST NEBRASKA AND IOWA...

CITY           SKY/WX    TMP DP  RH WIND       PRES   REMARKS
TOPEKA         CLOUDY    75  70  84 CALM      30.08F
MANHATTAN      LGT RAIN  74  69  85 VRB3      30.08F
EMPORIA        PTSUNNY   73  71  93 E12       30.03F
CHANUTE        CLOUDY    75  72  90 E12       30.03F
WICHITA        PTSUNNY   79  67  66 S5        30.09R
OMAHA          MOSUNNY   83  64  52 CALM      30.13S
LINCOLN        SUNNY     81  65  58 VRB6      30.15F
FALLS CITY     PTSUNNY   78  68  71 E6        30.12S
LAMONI         MOSUNNY   79  67  66 N5        30.11F
DES MOINES     MOSUNNY   86  60  41 VRB6      30.10R

$$





USA.gov is the U.S. government's official web portal to all federal, state and local government web resources and services.